Time,TemperatureF,DewpointF,PressureIn,WindDirection,WindDirectionDegrees,WindSpeedMPH,WindSpeedGustMPH,Humidity,HourlyPrecipIn,Conditions,Clouds,dailyrainin,SoftwareType,DateUTC
2013-09-05 00:01:00,70.0,51.0,27.17,WSW,247,4.0,5.0,51,0.00,,,0.00,Rainwise IP-100,2013-09-05 06:01:00,
2013-09-05 00:06:00,70.0,51.0,27.18,East,90,0.0,5.0,51,0.00,,,0.00,Rainwise IP-100,2013-09-05 06:06:00,
2013-09-05 00:11:00,69.0,50.0,27.18,ENE,67,3.0,3.0,51,0.00,,,0.00,Rainwise IP-100,2013-09-05 06:11:00,
2013-09-05 00:16:00,69.0,50.0,27.17,East,90,2.0,5.0,52,0.00,,,0.00,Rainwise IP-100,2013-09-05 06:16:00,
2013-09-05 00:21:00,70.0,51.0,27.17,East,90,3.0,6.0,52,0.00,,,0.00,Rainwise IP-100,2013-09-05 06:21:00,
2013-09-05 00:26:00,70.0,51.0,27.18,ESE,112,0.0,4.0,52,0.00,,,0.00,Rainwise IP-100,2013-09-05 06:26:00,
2013-09-05 00:31:00,70.0,51.0,27.18,ESE,112,2.0,3.0,52,0.00,,,0.00,Rainwise IP-100,2013-09-05 06:31:00,
2013-09-05 00:36:00,69.0,50.0,27.18,East,90,1.0,3.0,52,0.00,,,0.00,Rainwise IP-100,2013-09-05 06:36:00,
2013-09-05 00:41:00,69.0,50.0,27.18,NE,45,2.0,4.0,51,0.00,,,0.00,Rainwise IP-100,2013-09-05 06:41:00,
2013-09-05 00:46:00,70.0,51.0,27.18,ESE,112,0.0,4.0,51,0.00,,,0.00,Rainwise IP-100,2013-09-05 06:46:00,
2013-09-05 00:51:00,70.0,50.0,27.18,East,90,3.0,5.0,50,0.00,,,0.00,Rainwise IP-100,2013-09-05 06:51:00,
2013-09-05 00:56:00,70.0,50.0,27.19,ESE,112,0.0,5.0,50,0.00,,,0.00,Rainwise IP-100,2013-09-05 06:56:00,
2013-09-05 01:01:00,70.0,51.0,27.19,ESE,112,1.0,0.0,51,0.00,,,0.00,Rainwise IP-100,2013-09-05 07:01:00,
2013-09-05 01:06:00,70.0,51.0,27.18,North,360,2.0,4.0,51,0.00,,,0.00,Rainwise IP-100,2013-09-05 07:06:00,
2013-09-05 01:11:00,70.0,50.0,27.18,ENE,67,3.0,5.0,49,0.00,,,0.00,Rainwise IP-100,2013-09-05 07:11:00,
2013-09-05 01:16:00,70.0,50.0,27.18,NNE,22,2.0,6.0,48,0.00,,,0.00,Rainwise IP-100,2013-09-05 07:16:00,
2013-09-05 01:21:00,71.0,50.0,27.18,ESE,112,6.0,6.0,47,0.00,,,0.00,Rainwise IP-100,2013-09-05 07:21:00,
2013-09-05 01:26:00,71.0,49.0,27.18,NE,45,3.0,10.0,46,0.00,,,0.00,Rainwise IP-100,2013-09-05 07:26:00,
2013-09-05 01:31:00,72.0,50.0,27.18,NE,45,1.0,6.0,46,0.00,,,0.00,Rainwise IP-100,2013-09-05 07:31:00,
2013-09-05 01:36:00,72.0,50.0,27.18,NE,45,4.0,6.0,46,0.00,,,0.00,Rainwise IP-100,2013-09-05 07:36:00,
2013-09-05 01:41:00,72.0,50.0,27.18,ESE,112,3.0,7.0,46,0.00,,,0.00,Rainwise IP-100,2013-09-05 07:41:00,
2013-09-05 01:46:00,72.0,50.0,27.18,SE,135,1.0,6.0,46,0.00,,,0.00,Rainwise IP-100,2013-09-05 07:46:00,
2013-09-05 01:51:00,72.0,50.0,27.18,West,270,2.0,4.0,47,0.00,,,0.00,Rainwise IP-100,2013-09-05 07:51:00,
2013-09-05 01:56:00,71.0,51.0,27.19,South,180,1.0,5.0,50,0.00,,,0.00,Rainwise IP-100,2013-09-05 07:56:00,
2013-09-05 02:01:00,70.0,51.0,27.19,South,180,0.0,4.0,51,0.00,,,0.00,Rainwise IP-100,2013-09-05 08:01:00,
2013-09-05 02:06:00,70.0,52.0,27.18,South,180,0.0,0.0,53,0.00,,,0.00,Rainwise IP-100,2013-09-05 08:06:00,
2013-09-05 02:11:00,69.0,53.0,27.18,South,180,0.0,0.0,56,0.00,,,0.00,Rainwise IP-100,2013-09-05 08:11:00,
2013-09-05 02:16:00,68.0,52.0,27.18,South,180,2.0,3.0,57,0.00,,,0.00,Rainwise IP-100,2013-09-05 08:16:00,
2013-09-05 02:21:00,68.0,52.0,27.18,South,180,0.0,3.0,57,0.00,,,0.00,Rainwise IP-100,2013-09-05 08:21:00,
2013-09-05 02:26:00,68.0,53.0,27.18,South,180,0.0,0.0,59,0.00,,,0.00,Rainwise IP-100,2013-09-05 08:26:00,
2013-09-05 02:31:00,68.0,53.0,27.18,ENE,67,0.0,3.0,58,0.00,,,0.00,Rainwise IP-100,2013-09-05 08:31:00,
2013-09-05 02:36:00,68.0,53.0,27.18,ENE,67,0.0,1.0,58,0.00,,,0.00,Rainwise IP-100,2013-09-05 08:36:00,
2013-09-05 02:41:00,68.0,53.0,27.18,ENE,67,0.0,0.0,58,0.00,,,0.00,Rainwise IP-100,2013-09-05 08:41:00,
2013-09-05 02:46:00,68.0,53.0,27.18,WNW,292,3.0,0.0,59,0.00,,,0.00,Rainwise IP-100,2013-09-05 08:46:00,
2013-09-05 02:51:00,68.0,53.0,27.18,WNW,292,0.0,4.0,59,0.00,,,0.00,Rainwise IP-100,2013-09-05 08:51:00,
2013-09-05 02:56:00,68.0,52.0,27.18,ENE,67,0.0,4.0,56,0.00,,,0.00,Rainwise IP-100,2013-09-05 08:56:00,
2013-09-05 03:01:00,68.0,52.0,27.18,ENE,67,2.0,3.0,56,0.00,,,0.00,Rainwise IP-100,2013-09-05 09:01:00,
2013-09-05 03:06:00,68.0,51.0,27.17,ENE,67,1.0,3.0,55,0.00,,,0.00,Rainwise IP-100,2013-09-05 09:06:00,
2013-09-05 03:11:00,68.0,50.0,27.17,ENE,67,0.0,2.0,54,0.00,,,0.00,Rainwise IP-100,2013-09-05 09:11:00,
2013-09-05 03:16:00,68.0,50.0,27.17,SE,135,1.0,6.0,54,0.00,,,0.00,Rainwise IP-100,2013-09-05 09:16:00,
2013-09-05 03:21:00,68.0,50.0,27.17,East,90,0.0,6.0,54,0.00,,,0.00,Rainwise IP-100,2013-09-05 09:21:00,
2013-09-05 03:26:00,68.0,50.0,27.17,East,90,0.0,3.0,54,0.00,,,0.00,Rainwise IP-100,2013-09-05 09:26:00,
2013-09-05 03:31:00,68.0,51.0,27.17,SSE,157,0.0,5.0,55,0.00,,,0.00,Rainwise IP-100,2013-09-05 09:31:00,
2013-09-05 03:36:00,68.0,50.0,27.17,South,180,0.0,4.0,54,0.00,,,0.00,Rainwise IP-100,2013-09-05 09:36:00,
2013-09-05 03:41:00,67.0,50.0,27.17,NNE,22,3.0,6.0,53,0.00,,,0.00,Rainwise IP-100,2013-09-05 09:41:00,
2013-09-05 03:46:00,67.0,50.0,27.17,NNW,337,3.0,6.0,53,0.00,,,0.00,Rainwise IP-100,2013-09-05 09:46:00,
2013-09-05 03:51:00,67.0,50.0,27.17,North,360,4.0,6.0,54,0.00,,,0.00,Rainwise IP-100,2013-09-05 09:51:00,
2013-09-05 03:56:00,67.0,50.0,27.18,NE,45,2.0,6.0,53,0.00,,,0.00,Rainwise IP-100,2013-09-05 09:56:00,
2013-09-05 04:01:00,67.0,50.0,27.18,NE,45,3.0,4.0,54,0.00,,,0.00,Rainwise IP-100,2013-09-05 10:01:00,
2013-09-05 04:06:00,67.0,50.0,27.17,ENE,67,7.0,7.0,53,0.00,,,0.00,Rainwise IP-100,2013-09-05 10:06:00,
2013-09-05 04:11:00,68.0,50.0,27.17,ENE,67,5.0,8.0,53,0.00,,,0.00,Rainwise IP-100,2013-09-05 10:11:00,
2013-09-05 04:16:00,68.0,50.0,27.17,ESE,112,2.0,7.0,54,0.00,,,0.00,Rainwise IP-100,2013-09-05 10:16:00,
2013-09-05 04:21:00,67.0,52.0,27.17,SE,135,4.0,5.0,58,0.00,,,0.00,Rainwise IP-100,2013-09-05 10:21:00,
2013-09-05 04:26:00,67.0,53.0,27.18,ESE,112,2.0,6.0,60,0.00,,,0.00,Rainwise IP-100,2013-09-05 10:26:00,
2013-09-05 04:31:00,66.0,51.0,27.18,ESE,112,0.0,4.0,60,0.00,,,0.00,Rainwise IP-100,2013-09-05 10:31:00,
2013-09-05 04:36:00,66.0,51.0,27.18,ESE,112,2.0,2.0,60,0.00,,,0.00,Rainwise IP-100,2013-09-05 10:36:00,
2013-09-05 04:41:00,65.0,51.0,27.18,ESE,112,0.0,2.0,61,0.00,,,0.00,Rainwise IP-100,2013-09-05 10:41:00,
2013-09-05 04:46:00,65.0,51.0,27.18,ESE,112,0.0,2.0,62,0.00,,,0.00,Rainwise IP-100,2013-09-05 10:46:00,
2013-09-05 04:51:00,65.0,51.0,27.18,West,270,2.0,0.0,62,0.00,,,0.00,Rainwise IP-100,2013-09-05 10:51:00,
2013-09-05 04:56:00,65.0,52.0,27.18,West,270,1.0,3.0,63,0.00,,,0.00,Rainwise IP-100,2013-09-05 10:56:00,
2013-09-05 05:01:00,65.0,51.0,27.18,West,270,0.0,2.0,62,0.00,,,0.00,Rainwise IP-100,2013-09-05 11:01:00,
2013-09-05 05:06:00,65.0,51.0,27.18,West,270,0.0,1.0,62,0.00,,,0.00,Rainwise IP-100,2013-09-05 11:06:00,
2013-09-05 05:11:00,65.0,51.0,27.18,West,270,0.0,0.0,62,0.00,,,0.00,Rainwise IP-100,2013-09-05 11:11:00,
2013-09-05 05:16:00,65.0,52.0,27.17,West,270,0.0,0.0,63,0.00,,,0.00,Rainwise IP-100,2013-09-05 11:16:00,
2013-09-05 05:21:00,65.0,51.0,27.17,West,270,0.0,0.0,62,0.00,,,0.00,Rainwise IP-100,2013-09-05 11:21:00,
2013-09-05 05:26:00,65.0,53.0,27.17,SW,225,0.0,2.0,64,0.00,,,0.00,Rainwise IP-100,2013-09-05 11:26:00,
2013-09-05 05:31:00,65.0,51.0,27.17,South,180,3.0,4.0,62,0.00,,,0.00,Rainwise IP-100,2013-09-05 11:31:00,
2013-09-05 05:36:00,65.0,50.0,27.18,East,90,1.0,4.0,60,0.00,,,0.00,Rainwise IP-100,2013-09-05 11:36:00,
2013-09-05 05:41:00,65.0,50.0,27.18,NNW,337,3.0,3.0,60,0.00,,,0.00,Rainwise IP-100,2013-09-05 11:41:00,
2013-09-05 05:46:00,66.0,51.0,27.17,NNW,337,0.0,4.0,60,0.00,,,0.00,Rainwise IP-100,2013-09-05 11:46:00,
2013-09-05 05:51:00,66.0,50.0,27.17,East,90,3.0,4.0,57,0.00,,,0.00,Rainwise IP-100,2013-09-05 11:51:00,
2013-09-05 05:56:00,66.0,50.0,27.17,SSE,157,1.0,4.0,57,0.00,,,0.00,Rainwise IP-100,2013-09-05 11:56:00,
2013-09-05 06:01:00,66.0,51.0,27.17,SSE,157,0.0,4.0,59,0.00,,,0.00,Rainwise IP-100,2013-09-05 12:01:00,
2013-09-05 06:06:00,66.0,51.0,27.17,ESE,112,1.0,0.0,59,0.00,,,0.00,Rainwise IP-100,2013-09-05 12:06:00,
2013-09-05 06:11:00,66.0,49.0,27.17,NE,45,0.0,6.0,55,0.00,,,0.00,Rainwise IP-100,2013-09-05 12:11:00,
2013-09-05 06:16:00,66.0,49.0,27.17,NNE,22,2.0,4.0,55,0.00,,,0.00,Rainwise IP-100,2013-09-05 12:16:00,
2013-09-05 06:21:00,66.0,49.0,27.17,NE,45,2.0,4.0,55,0.00,,,0.00,Rainwise IP-100,2013-09-05 12:21:00,
2013-09-05 06:26:00,66.0,49.0,27.17,East,90,2.0,3.0,55,0.00,,,0.00,Rainwise IP-100,2013-09-05 12:26:00,
2013-09-05 06:31:00,66.0,50.0,27.17,SSW,202,1.0,2.0,56,0.00,,,0.00,Rainwise IP-100,2013-09-05 12:31:00,
2013-09-05 06:36:00,66.0,50.0,27.18,SSE,157,2.0,2.0,56,0.00,,,0.00,Rainwise IP-100,2013-09-05 12:36:00,
2013-09-05 06:41:00,66.0,50.0,27.18,SSE,157,0.0,3.0,57,0.00,,,0.00,Rainwise IP-100,2013-09-05 12:41:00,
2013-09-05 06:46:00,66.0,53.0,27.18,WSW,247,1.0,4.0,62,0.00,,,0.00,Rainwise IP-100,2013-09-05 12:46:00,
2013-09-05 06:51:00,65.0,51.0,27.18,WSW,247,0.0,4.0,62,0.00,,,0.00,Rainwise IP-100,2013-09-05 12:51:00,
2013-09-05 06:56:00,65.0,52.0,27.19,WSW,247,1.0,3.0,63,0.00,,,0.00,Rainwise IP-100,2013-09-05 12:56:00,
2013-09-05 07:01:00,65.0,52.0,27.19,West,270,1.0,6.0,63,0.00,,,0.00,Rainwise IP-100,2013-09-05 13:01:00,
2013-09-05 07:06:00,65.0,53.0,27.19,WNW,292,3.0,4.0,65,0.00,,,0.00,Rainwise IP-100,2013-09-05 13:06:00,
2013-09-05 07:11:00,65.0,53.0,27.19,WSW,247,2.0,6.0,65,0.00,,,0.00,Rainwise IP-100,2013-09-05 13:11:00,
2013-09-05 07:16:00,65.0,54.0,27.21,SSE,157,0.0,6.0,67,0.00,,,0.00,Rainwise IP-100,2013-09-05 13:16:00,
2013-09-05 07:21:00,65.0,54.0,27.21,SSE,157,4.0,9.0,67,0.00,,,0.00,Rainwise IP-100,2013-09-05 13:21:00,
2013-09-05 07:26:00,66.0,54.0,27.22,ESE,112,5.0,7.0,67,0.00,,,0.00,Rainwise IP-100,2013-09-05 13:26:00,
2013-09-05 07:31:00,66.0,54.0,27.22,ENE,67,4.0,7.0,67,0.00,,,0.00,Rainwise IP-100,2013-09-05 13:31:00,
2013-09-05 07:36:00,66.0,54.0,27.23,NE,45,1.0,6.0,67,0.00,,,0.00,Rainwise IP-100,2013-09-05 13:36:00,
2013-09-05 07:41:00,66.0,54.0,27.23,North,360,2.0,7.0,66,0.00,,,0.00,Rainwise IP-100,2013-09-05 13:41:00,
2013-09-05 07:46:00,67.0,55.0,27.22,NNE,22,4.0,6.0,65,0.00,,,0.00,Rainwise IP-100,2013-09-05 13:46:00,
2013-09-05 07:51:00,67.0,54.0,27.22,ENE,67,4.0,7.0,64,0.00,,,0.00,Rainwise IP-100,2013-09-05 13:51:00,
2013-09-05 07:56:00,68.0,54.0,27.23,ENE,67,2.0,9.0,62,0.00,,,0.00,Rainwise IP-100,2013-09-05 13:56:00,
2013-09-05 08:01:00,68.0,53.0,27.23,North,360,6.0,9.0,60,0.00,,,0.00,Rainwise IP-100,2013-09-05 14:01:00,
2013-09-05 08:06:00,68.0,53.0,27.24,NNE,22,3.0,7.0,58,0.00,,,0.00,Rainwise IP-100,2013-09-05 14:06:00,
2013-09-05 08:11:00,68.0,53.0,27.24,NNW,337,3.0,8.0,58,0.00,,,0.00,Rainwise IP-100,2013-09-05 14:11:00,
2013-09-05 08:16:00,68.0,52.0,27.25,WNW,292,3.0,7.0,57,0.00,,,0.00,Rainwise IP-100,2013-09-05 14:16:00,
2013-09-05 08:21:00,68.0,54.0,27.25,West,270,1.0,7.0,61,0.00,,,0.00,Rainwise IP-100,2013-09-05 14:21:00,
2013-09-05 08:26:00,68.0,55.0,27.25,WNW,292,4.0,8.0,64,0.00,,,0.00,Rainwise IP-100,2013-09-05 14:26:00,
2013-09-05 08:31:00,68.0,56.0,27.25,West,270,0.0,4.0,65,0.00,,,0.00,Rainwise IP-100,2013-09-05 14:31:00,
2013-09-05 08:36:00,68.0,56.0,27.25,West,270,0.0,0.0,65,0.00,,,0.00,Rainwise IP-100,2013-09-05 14:36:00,
2013-09-05 08:41:00,68.0,54.0,27.25,SSE,157,0.0,4.0,63,0.00,,,0.00,Rainwise IP-100,2013-09-05 14:41:00,
2013-09-05 08:46:00,68.0,54.0,27.26,SSE,157,0.0,5.0,63,0.00,,,0.00,Rainwise IP-100,2013-09-05 14:46:00,
2013-09-05 08:51:00,68.0,54.0,27.26,SSE,157,4.0,7.0,63,0.00,,,0.00,Rainwise IP-100,2013-09-05 14:51:00,
2013-09-05 08:56:00,69.0,54.0,27.27,South,180,1.0,7.0,61,0.00,,,0.00,Rainwise IP-100,2013-09-05 14:56:00,
2013-09-05 09:01:00,70.0,56.0,27.27,East,90,2.0,4.0,61,0.00,,,0.00,Rainwise IP-100,2013-09-05 15:01:00,
2013-09-05 09:06:00,71.0,55.0,27.28,ENE,67,0.0,3.0,58,0.00,,,0.00,Rainwise IP-100,2013-09-05 15:06:00,
2013-09-05 09:11:00,72.0,55.0,27.28,NNE,22,4.0,5.0,56,0.00,,,0.00,Rainwise IP-100,2013-09-05 15:11:00,
2013-09-05 09:16:00,73.0,56.0,27.31,NW,315,4.0,6.0,56,0.00,,,0.00,Rainwise IP-100,2013-09-05 15:16:00,
2013-09-05 09:21:00,73.0,56.0,27.31,NNE,22,1.0,8.0,55,0.00,,,0.00,Rainwise IP-100,2013-09-05 15:21:00,
2013-09-05 09:26:00,73.0,57.0,27.30,NW,315,2.0,7.0,57,0.00,,,0.00,Rainwise IP-100,2013-09-05 15:26:00,
2013-09-05 09:31:00,72.0,57.0,27.30,NW,315,9.0,9.0,60,0.00,,,0.00,Rainwise IP-100,2013-09-05 15:31:00,
2013-09-05 09:36:00,72.0,57.0,27.28,NW,315,4.0,11.0,61,0.00,,,0.00,Rainwise IP-100,2013-09-05 15:36:00,
2013-09-05 09:41:00,73.0,58.0,27.28,NNW,337,2.0,9.0,60,0.00,,,0.00,Rainwise IP-100,2013-09-05 15:41:00,
2013-09-05 09:46:00,74.0,57.0,27.30,WNW,292,7.0,8.0,56,0.00,,,0.00,Rainwise IP-100,2013-09-05 15:46:00,
2013-09-05 09:51:00,74.0,57.0,27.30,NNW,337,5.0,12.0,56,0.00,,,0.00,Rainwise IP-100,2013-09-05 15:51:00,
2013-09-05 09:56:00,73.0,56.0,27.30,NW,315,4.0,12.0,56,0.00,,,0.00,Rainwise IP-100,2013-09-05 15:56:00,
2013-09-05 10:01:00,73.0,57.0,27.30,NW,315,2.0,12.0,58,0.00,,,0.00,Rainwise IP-100,2013-09-05 16:01:00,
2013-09-05 10:06:00,72.0,56.0,27.29,West,270,5.0,9.0,58,0.00,,,0.00,Rainwise IP-100,2013-09-05 16:06:00,
2013-09-05 10:11:00,73.0,57.0,27.29,West,270,1.0,10.0,58,0.00,,,0.00,Rainwise IP-100,2013-09-05 16:11:00,
2013-09-05 10:16:00,72.0,57.0,27.28,South,180,4.0,6.0,60,0.00,,,0.00,Rainwise IP-100,2013-09-05 16:16:00,
2013-09-05 10:21:00,73.0,58.0,27.28,WSW,247,0.0,4.0,60,0.00,,,0.00,Rainwise IP-100,2013-09-05 16:21:00,
2013-09-05 10:26:00,72.0,57.0,27.27,SSE,157,3.0,6.0,61,0.00,,,0.00,Rainwise IP-100,2013-09-05 16:26:00,
2013-09-05 10:31:00,72.0,57.0,27.27,SW,225,3.0,4.0,60,0.00,,,0.00,Rainwise IP-100,2013-09-05 16:31:00,
2013-09-05 10:36:00,72.0,57.0,27.26,NE,45,0.0,4.0,61,0.00,,,0.00,Rainwise IP-100,2013-09-05 16:36:00,
2013-09-05 10:41:00,72.0,57.0,27.26,ENE,67,0.0,3.0,61,0.00,,,0.00,Rainwise IP-100,2013-09-05 16:41:00,
2013-09-05 10:46:00,71.0,56.0,27.25,NW,315,5.0,6.0,60,0.00,,,0.00,Rainwise IP-100,2013-09-05 16:46:00,
2013-09-05 10:51:00,72.0,57.0,27.25,North,360,0.0,5.0,60,0.00,,,0.00,Rainwise IP-100,2013-09-05 16:51:00,
2013-09-05 10:56:00,72.0,57.0,27.25,WNW,292,0.0,4.0,60,0.00,,,0.00,Rainwise IP-100,2013-09-05 16:56:00,
2013-09-05 11:01:00,72.0,57.0,27.25,WNW,292,0.0,2.0,60,0.00,,,0.00,Rainwise IP-100,2013-09-05 17:01:00,
2013-09-05 11:06:00,72.0,57.0,27.25,NNE,22,4.0,5.0,59,0.00,,,0.00,Rainwise IP-100,2013-09-05 17:06:00,
2013-09-05 11:11:00,72.0,56.0,27.25,NNE,22,0.0,4.0,58,0.00,,,0.00,Rainwise IP-100,2013-09-05 17:11:00,
2013-09-05 11:16:00,73.0,57.0,27.26,NE,45,0.0,3.0,58,0.00,,,0.00,Rainwise IP-100,2013-09-05 17:16:00,
2013-09-05 11:21:00,73.0,57.0,27.26,NNW,337,0.0,3.0,57,0.00,,,0.00,Rainwise IP-100,2013-09-05 17:21:00,
2013-09-05 11:26:00,74.0,57.0,27.26,NE,45,1.0,4.0,56,0.00,,,0.00,Rainwise IP-100,2013-09-05 17:26:00,
2013-09-05 11:31:00,74.0,57.0,27.26,NE,45,2.0,6.0,55,0.00,,,0.00,Rainwise IP-100,2013-09-05 17:31:00,
2013-09-05 11:36:00,74.0,57.0,27.27,NE,45,1.0,2.0,55,0.00,,,0.00,Rainwise IP-100,2013-09-05 17:36:00,
2013-09-05 11:41:00,74.0,56.0,27.27,SSE,157,3.0,3.0,54,0.00,,,0.00,Rainwise IP-100,2013-09-05 17:41:00,
2013-09-05 11:46:00,74.0,56.0,27.28,South,180,0.0,5.0,54,0.00,,,0.00,Rainwise IP-100,2013-09-05 17:46:00,
2013-09-05 11:51:00,74.0,56.0,27.28,South,180,0.0,3.0,54,0.00,,,0.00,Rainwise IP-100,2013-09-05 17:51:00,
2013-09-05 11:56:00,74.0,57.0,27.28,West,270,2.0,3.0,55,0.00,,,0.00,Rainwise IP-100,2013-09-05 17:56:00,
2013-09-05 12:01:00,74.0,57.0,27.28,NW,315,3.0,5.0,57,0.00,,,0.00,Rainwise IP-100,2013-09-05 18:01:00,
2013-09-05 12:06:00,73.0,57.0,27.29,NW,315,6.0,6.0,59,0.00,,,0.00,Rainwise IP-100,2013-09-05 18:06:00,
2013-09-05 12:11:00,74.0,59.0,27.29,NW,315,0.0,6.0,60,0.00,,,0.00,Rainwise IP-100,2013-09-05 18:11:00,
2013-09-05 12:16:00,74.0,57.0,27.29,North,360,4.0,7.0,57,0.00,,,0.00,Rainwise IP-100,2013-09-05 18:16:00,
2013-09-05 12:21:00,74.0,57.0,27.29,NNW,337,1.0,7.0,57,0.00,,,0.00,Rainwise IP-100,2013-09-05 18:21:00,
2013-09-05 12:26:00,74.0,57.0,27.29,WNW,292,2.0,6.0,56,0.00,,,0.00,Rainwise IP-100,2013-09-05 18:26:00,
2013-09-05 12:31:00,74.0,57.0,27.29,North,360,0.0,4.0,56,0.00,,,0.00,Rainwise IP-100,2013-09-05 18:31:00,
2013-09-05 12:36:00,74.0,57.0,27.29,North,360,3.0,6.0,56,0.00,,,0.00,Rainwise IP-100,2013-09-05 18:36:00,
2013-09-05 12:41:00,74.0,58.0,27.29,North,360,3.0,7.0,58,0.00,,,0.00,Rainwise IP-100,2013-09-05 18:41:00,
2013-09-05 12:46:00,74.0,58.0,27.28,North,360,3.0,8.0,58,0.00,,,0.00,Rainwise IP-100,2013-09-05 18:46:00,
2013-09-05 12:51:00,74.0,58.0,27.28,NE,45,3.0,6.0,58,0.00,,,0.00,Rainwise IP-100,2013-09-05 18:51:00,
2013-09-05 12:56:00,74.0,58.0,27.27,NNE,22,4.0,7.0,58,0.00,,,0.00,Rainwise IP-100,2013-09-05 18:56:00,
2013-09-05 13:01:00,73.0,57.0,27.27,North,360,5.0,6.0,57,0.00,,,0.00,Rainwise IP-100,2013-09-05 19:01:00,
2013-09-05 13:06:00,73.0,56.0,27.27,NNW,337,2.0,7.0,56,0.00,,,0.00,Rainwise IP-100,2013-09-05 19:06:00,
2013-09-05 13:11:00,74.0,56.0,27.27,NNW,337,4.0,8.0,54,0.00,,,0.00,Rainwise IP-100,2013-09-05 19:11:00,
2013-09-05 13:16:00,74.0,57.0,27.28,West,270,2.0,6.0,55,0.00,,,0.00,Rainwise IP-100,2013-09-05 19:16:00,
2013-09-05 13:21:00,74.0,57.0,27.28,WNW,292,2.0,6.0,55,0.00,,,0.00,Rainwise IP-100,2013-09-05 19:21:00,
2013-09-05 13:26:00,74.0,59.0,27.30,South,180,1.0,7.0,60,0.00,,,0.00,Rainwise IP-100,2013-09-05 19:26:00,
2013-09-05 13:31:00,74.0,61.0,27.30,South,180,1.0,7.0,63,0.00,,,0.00,Rainwise IP-100,2013-09-05 19:31:00,
2013-09-05 13:36:00,73.0,60.0,27.32,WNW,292,1.0,6.0,65,0.00,,,0.00,Rainwise IP-100,2013-09-05 19:36:00,
2013-09-05 13:41:00,73.0,61.0,27.32,SW,225,0.0,6.0,67,0.00,,,0.00,Rainwise IP-100,2013-09-05 19:41:00,
2013-09-05 13:46:00,71.0,61.0,27.31,West,270,3.0,6.0,72,0.00,,,0.00,Rainwise IP-100,2013-09-05 19:46:00,
2013-09-05 13:51:00,70.0,62.0,27.31,WNW,292,5.0,6.0,76,0.06,,,0.02,Rainwise IP-100,2013-09-05 19:51:00,
2013-09-05 13:56:00,68.0,61.0,27.30,NW,315,2.0,6.0,80,0.12,,,0.02,Rainwise IP-100,2013-09-05 19:56:00,
2013-09-05 14:01:00,68.0,62.0,27.30,North,360,3.0,5.0,82,0.06,,,0.02,Rainwise IP-100,2013-09-05 20:01:00,
2013-09-05 14:06:00,68.0,62.0,27.30,NE,45,0.0,4.0,83,0.06,,,0.03,Rainwise IP-100,2013-09-05 20:06:00,
2013-09-05 14:11:00,68.0,63.0,27.30,NE,45,0.0,0.0,85,0.06,,,0.03,Rainwise IP-100,2013-09-05 20:11:00,
2013-09-05 14:16:00,68.0,63.0,27.30,SE,135,0.0,3.0,86,0.00,,,0.03,Rainwise IP-100,2013-09-05 20:16:00,
2013-09-05 14:21:00,68.0,63.0,27.30,NE,45,0.0,1.0,86,0.00,,,0.03,Rainwise IP-100,2013-09-05 20:21:00,
2013-09-05 14:26:00,69.0,64.0,27.29,NE,45,0.0,0.0,84,0.00,,,0.03,Rainwise IP-100,2013-09-05 20:26:00,
2013-09-05 14:31:00,69.0,62.0,27.29,ENE,67,1.0,4.0,80,0.00,,,0.03,Rainwise IP-100,2013-09-05 20:31:00,
2013-09-05 14:36:00,69.0,63.0,27.29,ENE,67,0.0,3.0,81,0.00,,,0.03,Rainwise IP-100,2013-09-05 20:36:00,
2013-09-05 14:41:00,70.0,63.0,27.29,NNW,337,2.0,3.0,79,0.00,,,0.03,Rainwise IP-100,2013-09-05 20:41:00,
2013-09-05 14:46:00,70.0,63.0,27.30,NNW,337,1.0,4.0,78,0.00,,,0.03,Rainwise IP-100,2013-09-05 20:46:00,
2013-09-05 14:51:00,71.0,62.0,27.30,North,360,0.0,4.0,74,0.00,,,0.03,Rainwise IP-100,2013-09-05 20:51:00,
2013-09-05 14:56:00,72.0,63.0,27.30,SE,135,4.0,4.0,73,0.00,,,0.03,Rainwise IP-100,2013-09-05 20:56:00,
2013-09-05 15:01:00,72.0,62.0,27.30,South,180,2.0,6.0,72,0.00,,,0.03,Rainwise IP-100,2013-09-05 21:01:00,
2013-09-05 15:06:00,73.0,61.0,27.32,SSW,202,2.0,6.0,67,0.00,,,0.03,Rainwise IP-100,2013-09-05 21:06:00,
2013-09-05 15:11:00,73.0,60.0,27.32,East,90,0.0,7.0,63,0.00,,,0.03,Rainwise IP-100,2013-09-05 21:11:00,
2013-09-05 15:16:00,74.0,60.0,27.33,South,180,1.0,3.0,61,0.00,,,0.03,Rainwise IP-100,2013-09-05 21:16:00,
2013-09-05 15:21:00,75.0,61.0,27.33,ENE,67,1.0,4.0,62,0.00,,,0.03,Rainwise IP-100,2013-09-05 21:21:00,
2013-09-05 15:26:00,75.0,60.0,27.33,ESE,112,3.0,7.0,59,0.00,,,0.03,Rainwise IP-100,2013-09-05 21:26:00,
2013-09-05 15:31:00,76.0,59.0,27.33,NE,45,3.0,5.0,57,0.00,,,0.03,Rainwise IP-100,2013-09-05 21:31:00,
2013-09-05 15:36:00,76.0,59.0,27.34,ENE,67,3.0,7.0,56,0.00,,,0.03,Rainwise IP-100,2013-09-05 21:36:00,
2013-09-05 15:41:00,76.0,60.0,27.34,East,90,2.0,7.0,58,0.00,,,0.03,Rainwise IP-100,2013-09-05 21:41:00,
2013-09-05 15:46:00,76.0,60.0,27.34,NE,45,4.0,9.0,58,0.00,,,0.03,Rainwise IP-100,2013-09-05 21:46:00,
2013-09-05 15:51:00,76.0,60.0,27.34,ENE,67,2.0,12.0,59,0.00,,,0.03,Rainwise IP-100,2013-09-05 21:51:00,
2013-09-05 15:56:00,76.0,59.0,27.33,ENE,67,8.0,10.0,57,0.00,,,0.03,Rainwise IP-100,2013-09-05 21:56:00,
2013-09-05 16:01:00,76.0,58.0,27.33,SE,135,6.0,10.0,54,0.00,,,0.03,Rainwise IP-100,2013-09-05 22:01:00,
2013-09-05 16:06:00,76.0,56.0,27.33,East,90,8.0,9.0,51,0.00,,,0.03,Rainwise IP-100,2013-09-05 22:06:00,
2013-09-05 16:11:00,77.0,58.0,27.33,ENE,67,3.0,10.0,52,0.00,,,0.03,Rainwise IP-100,2013-09-05 22:11:00,
2013-09-05 16:16:00,77.0,57.0,27.32,ENE,67,0.0,10.0,51,0.00,,,0.03,Rainwise IP-100,2013-09-05 22:16:00,
2013-09-05 16:21:00,77.0,57.0,27.32,ESE,112,4.0,10.0,51,0.00,,,0.03,Rainwise IP-100,2013-09-05 22:21:00,
2013-09-05 16:26:00,77.0,57.0,27.32,ENE,67,6.0,9.0,51,0.00,,,0.03,Rainwise IP-100,2013-09-05 22:26:00,
2013-09-05 16:31:00,77.0,57.0,27.32,ENE,67,6.0,9.0,51,0.00,,,0.03,Rainwise IP-100,2013-09-05 22:31:00,
2013-09-05 16:36:00,77.0,58.0,27.30,East,90,4.0,8.0,52,0.00,,,0.03,Rainwise IP-100,2013-09-05 22:36:00,
2013-09-05 16:41:00,78.0,58.0,27.30,NE,45,5.0,9.0,50,0.00,,,0.03,Rainwise IP-100,2013-09-05 22:41:00,
2013-09-05 16:46:00,78.0,57.0,27.29,ENE,67,9.0,12.0,48,0.00,,,0.03,Rainwise IP-100,2013-09-05 22:46:00,
2013-09-05 16:51:00,78.0,58.0,27.29,East,90,2.0,10.0,50,0.00,,,0.03,Rainwise IP-100,2013-09-05 22:51:00,
2013-09-05 16:56:00,78.0,58.0,27.28,ESE,112,7.0,10.0,50,0.00,,,0.03,Rainwise IP-100,2013-09-05 22:56:00,
2013-09-05 17:01:00,78.0,58.0,27.28,East,90,6.0,10.0,50,0.00,,,0.03,Rainwise IP-100,2013-09-05 23:01:00,
2013-09-05 17:06:00,79.0,59.0,27.27,NE,45,5.0,8.0,50,0.00,,,0.03,Rainwise IP-100,2013-09-05 23:06:00,
2013-09-05 17:11:00,79.0,58.0,27.27,NE,45,3.0,8.0,49,0.00,,,0.03,Rainwise IP-100,2013-09-05 23:11:00,
2013-09-05 17:16:00,79.0,57.0,27.27,NNE,22,1.0,12.0,48,0.00,,,0.03,Rainwise IP-100,2013-09-05 23:16:00,
2013-09-05 17:21:00,79.0,57.0,27.27,NE,45,10.0,11.0,48,0.00,,,0.03,Rainwise IP-100,2013-09-05 23:21:00,
2013-09-05 17:26:00,79.0,57.0,27.26,ENE,67,3.0,12.0,47,0.00,,,0.03,Rainwise IP-100,2013-09-05 23:26:00,
2013-09-05 17:31:00,79.0,57.0,27.26,ESE,112,4.0,10.0,48,0.00,,,0.03,Rainwise IP-100,2013-09-05 23:31:00,
2013-09-05 17:36:00,79.0,57.0,27.25,ENE,67,5.0,10.0,48,0.00,,,0.03,Rainwise IP-100,2013-09-05 23:36:00,
2013-09-05 17:41:00,79.0,57.0,27.25,ENE,67,8.0,13.0,48,0.00,,,0.03,Rainwise IP-100,2013-09-05 23:41:00,
2013-09-05 17:46:00,79.0,57.0,27.26,NW,315,1.0,11.0,48,0.00,,,0.03,Rainwise IP-100,2013-09-05 23:46:00,
2013-09-05 17:51:00,79.0,56.0,27.26,NE,45,2.0,10.0,46,0.00,,,0.03,Rainwise IP-100,2013-09-05 23:51:00,
2013-09-05 17:56:00,79.0,56.0,27.25,ENE,67,8.0,10.0,46,0.00,,,0.03,Rainwise IP-100,2013-09-05 23:56:00,
2013-09-05 18:01:00,79.0,57.0,27.25,ENE,67,1.0,12.0,48,0.00,,,0.03,Rainwise IP-100,2013-09-06 00:01:00,
2013-09-05 18:06:00,79.0,57.0,27.24,ENE,67,6.0,10.0,47,0.00,,,0.03,Rainwise IP-100,2013-09-06 00:06:00,
2013-09-05 18:11:00,79.0,57.0,27.24,ENE,67,7.0,9.0,47,0.00,,,0.03,Rainwise IP-100,2013-09-06 00:11:00,
2013-09-05 18:16:00,78.0,57.0,27.22,NE,45,6.0,12.0,48,0.00,,,0.03,Rainwise IP-100,2013-09-06 00:16:00,
2013-09-05 18:21:00,78.0,57.0,27.22,East,90,5.0,11.0,49,0.00,,,0.03,Rainwise IP-100,2013-09-06 00:21:00,
2013-09-05 18:26:00,77.0,57.0,27.20,North,360,5.0,12.0,50,0.00,,,0.03,Rainwise IP-100,2013-09-06 00:26:00,
2013-09-05 18:31:00,77.0,57.0,27.20,East,90,9.0,9.0,51,0.00,,,0.03,Rainwise IP-100,2013-09-06 00:31:00,
2013-09-05 18:36:00,76.0,56.0,27.19,NNE,22,2.0,12.0,51,0.00,,,0.03,Rainwise IP-100,2013-09-06 00:36:00,
2013-09-05 18:41:00,76.0,56.0,27.19,ENE,67,3.0,11.0,51,0.00,,,0.03,Rainwise IP-100,2013-09-06 00:41:00,
2013-09-05 18:46:00,76.0,57.0,27.19,ENE,67,4.0,10.0,52,0.00,,,0.03,Rainwise IP-100,2013-09-06 00:46:00,
2013-09-05 18:51:00,75.0,56.0,27.19,East,90,3.0,14.0,52,0.00,,,0.03,Rainwise IP-100,2013-09-06 00:51:00,
2013-09-05 18:56:00,75.0,56.0,27.18,SE,135,2.0,9.0,52,0.00,,,0.03,Rainwise IP-100,2013-09-06 00:56:00,
2013-09-05 19:01:00,75.0,57.0,27.18,ENE,67,4.0,8.0,53,0.00,,,0.03,Rainwise IP-100,2013-09-06 01:01:00,
2013-09-05 19:06:00,75.0,57.0,27.18,NE,45,4.0,8.0,53,0.00,,,0.03,Rainwise IP-100,2013-09-06 01:06:00,
2013-09-05 19:11:00,75.0,57.0,27.18,East,90,2.0,10.0,53,0.00,,,0.03,Rainwise IP-100,2013-09-06 01:11:00,
2013-09-05 19:16:00,75.0,57.0,27.18,NE,45,6.0,10.0,54,0.00,,,0.03,Rainwise IP-100,2013-09-06 01:16:00,
2013-09-05 19:21:00,75.0,57.0,27.18,SSE,157,5.0,9.0,54,0.00,,,0.03,Rainwise IP-100,2013-09-06 01:21:00,
2013-09-05 19:26:00,75.0,57.0,27.17,East,90,1.0,8.0,54,0.00,,,0.03,Rainwise IP-100,2013-09-06 01:26:00,
2013-09-05 19:31:00,74.0,57.0,27.17,ENE,67,6.0,10.0,55,0.00,,,0.03,Rainwise IP-100,2013-09-06 01:31:00,
2013-09-05 19:36:00,74.0,57.0,27.19,ENE,67,6.0,13.0,55,0.00,,,0.03,Rainwise IP-100,2013-09-06 01:36:00,
2013-09-05 19:41:00,74.0,57.0,27.19,ENE,67,4.0,12.0,55,0.00,,,0.03,Rainwise IP-100,2013-09-06 01:41:00,
2013-09-05 19:46:00,74.0,57.0,27.18,NE,45,5.0,11.0,55,0.00,,,0.03,Rainwise IP-100,2013-09-06 01:46:00,
2013-09-05 19:51:00,74.0,57.0,27.18,SE,135,4.0,12.0,55,0.00,,,0.03,Rainwise IP-100,2013-09-06 01:51:00,
2013-09-05 19:56:00,74.0,57.0,27.19,NE,45,3.0,12.0,55,0.00,,,0.03,Rainwise IP-100,2013-09-06 01:56:00,
2013-09-05 20:01:00,74.0,57.0,27.19,SE,135,6.0,12.0,55,0.00,,,0.03,Rainwise IP-100,2013-09-06 02:01:00,
2013-09-05 20:06:00,74.0,57.0,27.19,SE,135,3.0,7.0,57,0.00,,,0.03,Rainwise IP-100,2013-09-06 02:06:00,
2013-09-05 20:11:00,73.0,58.0,27.19,ESE,112,6.0,7.0,60,0.00,,,0.03,Rainwise IP-100,2013-09-06 02:11:00,
2013-09-05 20:16:00,73.0,58.0,27.19,SSE,157,1.0,7.0,60,0.00,,,0.03,Rainwise IP-100,2013-09-06 02:16:00,
2013-09-05 20:21:00,73.0,57.0,27.19,ENE,67,5.0,9.0,59,0.00,,,0.03,Rainwise IP-100,2013-09-06 02:21:00,
2013-09-05 20:26:00,73.0,58.0,27.18,NE,45,4.0,7.0,60,0.00,,,0.03,Rainwise IP-100,2013-09-06 02:26:00,
2013-09-05 20:31:00,73.0,58.0,27.18,NE,45,3.0,7.0,60,0.00,,,0.03,Rainwise IP-100,2013-09-06 02:31:00,
2013-09-05 20:36:00,73.0,58.0,27.16,SSW,202,3.0,10.0,60,0.00,,,0.03,Rainwise IP-100,2013-09-06 02:36:00,
2013-09-05 20:41:00,72.0,59.0,27.16,North,360,5.0,7.0,63,0.00,,,0.03,Rainwise IP-100,2013-09-06 02:41:00,
2013-09-05 20:46:00,71.0,58.0,27.18,South,180,2.0,11.0,64,0.00,,,0.03,Rainwise IP-100,2013-09-06 02:46:00,
2013-09-05 20:51:00,70.0,59.0,27.18,NW,315,7.0,7.0,67,0.00,,,0.03,Rainwise IP-100,2013-09-06 02:51:00,
2013-09-05 20:56:00,69.0,57.0,27.18,WNW,292,4.0,9.0,68,0.00,,,0.03,Rainwise IP-100,2013-09-06 02:56:00,
2013-09-05 21:01:00,69.0,59.0,27.18,WNW,292,0.0,7.0,70,0.00,,,0.03,Rainwise IP-100,2013-09-06 03:01:00,
2013-09-05 21:06:00,68.0,57.0,27.18,SSW,202,2.0,6.0,70,0.00,,,0.03,Rainwise IP-100,2013-09-06 03:06:00,
2013-09-05 21:11:00,68.0,58.0,27.18,WSW,247,2.0,6.0,71,0.00,,,0.03,Rainwise IP-100,2013-09-06 03:11:00,
2013-09-05 21:16:00,68.0,57.0,27.18,SSW,202,7.0,10.0,69,0.00,,,0.03,Rainwise IP-100,2013-09-06 03:16:00,
2013-09-05 21:21:00,69.0,57.0,27.18,SSE,157,7.0,8.0,66,0.00,,,0.03,Rainwise IP-100,2013-09-06 03:21:00,
2013-09-05 21:26:00,69.0,57.0,27.19,SSW,202,3.0,10.0,66,0.00,,,0.03,Rainwise IP-100,2013-09-06 03:26:00,
2013-09-05 21:31:00,69.0,56.0,27.19,South,180,2.0,9.0,63,0.00,,,0.03,Rainwise IP-100,2013-09-06 03:31:00,
2013-09-05 21:36:00,69.0,56.0,27.19,WSW,247,2.0,7.0,63,0.00,,,0.03,Rainwise IP-100,2013-09-06 03:36:00,
2013-09-05 21:41:00,69.0,55.0,27.19,WSW,247,3.0,6.0,62,0.00,,,0.03,Rainwise IP-100,2013-09-06 03:41:00,
2013-09-05 21:46:00,69.0,55.0,27.20,West,270,3.0,6.0,62,0.00,,,0.03,Rainwise IP-100,2013-09-06 03:46:00,
2013-09-05 21:51:00,69.0,56.0,27.20,West,270,1.0,7.0,63,0.00,,,0.03,Rainwise IP-100,2013-09-06 03:51:00,
2013-09-05 21:56:00,69.0,56.0,27.22,West,270,2.0,11.0,63,0.00,,,0.03,Rainwise IP-100,2013-09-06 03:56:00,
2013-09-05 22:01:00,68.0,56.0,27.22,South,180,2.0,7.0,65,0.00,,,0.03,Rainwise IP-100,2013-09-06 04:01:00,
2013-09-05 22:06:00,68.0,56.0,27.23,ESE,112,1.0,6.0,65,0.00,,,0.03,Rainwise IP-100,2013-09-06 04:06:00,
2013-09-05 22:11:00,68.0,56.0,27.23,ENE,67,6.0,6.0,65,0.00,,,0.03,Rainwise IP-100,2013-09-06 04:11:00,
2013-09-05 22:16:00,68.0,56.0,27.23,West,270,8.0,8.0,65,0.00,,,0.03,Rainwise IP-100,2013-09-06 04:16:00,
2013-09-05 22:21:00,68.0,56.0,27.23,West,270,4.0,10.0,66,0.00,,,0.03,Rainwise IP-100,2013-09-06 04:21:00,
2013-09-05 22:26:00,68.0,56.0,27.24,WSW,247,0.0,9.0,66,0.00,,,0.03,Rainwise IP-100,2013-09-06 04:26:00,
2013-09-05 22:31:00,68.0,56.0,27.24,ESE,112,2.0,3.0,66,0.00,,,0.03,Rainwise IP-100,2013-09-06 04:31:00,
2013-09-05 22:36:00,68.0,56.0,27.23,SSW,202,1.0,4.0,66,0.00,,,0.03,Rainwise IP-100,2013-09-06 04:36:00,
2013-09-05 22:41:00,67.0,55.0,27.23,NW,315,4.0,4.0,65,0.00,,,0.03,Rainwise IP-100,2013-09-06 04:41:00,
2013-09-05 22:46:00,67.0,55.0,27.23,NNW,337,4.0,5.0,66,0.00,,,0.03,Rainwise IP-100,2013-09-06 04:46:00,
2013-09-05 22:51:00,67.0,56.0,27.23,NNW,337,0.0,5.0,67,0.00,,,0.03,Rainwise IP-100,2013-09-06 04:51:00,
2013-09-05 22:56:00,67.0,56.0,27.25,SSE,157,3.0,5.0,69,0.00,,,0.03,Rainwise IP-100,2013-09-06 04:56:00,
2013-09-05 23:01:00,67.0,57.0,27.25,SSE,157,3.0,5.0,71,0.00,,,0.03,Rainwise IP-100,2013-09-06 05:01:00,
2013-09-05 23:06:00,66.0,58.0,27.25,ENE,67,2.0,5.0,76,0.00,,,0.04,Rainwise IP-100,2013-09-06 05:06:00,
2013-09-05 23:11:00,66.0,59.0,27.25,West,270,2.0,5.0,78,0.06,,,0.04,Rainwise IP-100,2013-09-06 05:11:00,
2013-09-05 23:16:00,65.0,59.0,27.23,North,360,0.0,3.0,82,0.06,,,0.04,Rainwise IP-100,2013-09-06 05:16:00,
2013-09-05 23:21:00,64.0,59.0,27.23,WSW,247,3.0,3.0,85,0.00,,,0.04,Rainwise IP-100,2013-09-06 05:21:00,
2013-09-05 23:26:00,64.0,60.0,27.23,SW,225,1.0,4.0,87,0.00,,,0.04,Rainwise IP-100,2013-09-06 05:26:00,
2013-09-05 23:31:00,64.0,60.0,27.23,South,180,2.0,6.0,88,0.00,,,0.04,Rainwise IP-100,2013-09-06 05:31:00,
2013-09-05 23:36:00,64.0,59.0,27.22,SSW,202,0.0,6.0,85,0.00,,,0.04,Rainwise IP-100,2013-09-06 05:36:00,
2013-09-05 23:41:00,64.0,60.0,27.22,SW,225,0.0,3.0,86,0.00,,,0.04,Rainwise IP-100,2013-09-06 05:41:00,
2013-09-05 23:46:00,64.0,60.0,27.21,SW,225,0.0,0.0,86,0.00,,,0.04,Rainwise IP-100,2013-09-06 05:46:00,
2013-09-05 23:51:00,63.0,59.0,27.21,SW,225,1.0,6.0,87,0.00,,,0.04,Rainwise IP-100,2013-09-06 05:51:00,
2013-09-05 23:56:00,63.0,58.0,27.21,South,180,3.0,6.0,85,0.00,,,0.04,Rainwise IP-100,2013-09-06 05:56:00,